Torna al catalogo

STARLINK-34935

AttivoComunicazioniSSO
NORAD 65277·PAYLOAD·🇺🇸 United States

Lanciato Aug 22, 2025 da Vandenberg Space Force Base

Loading…

Prossimi Passaggi (prossime 24 ore)

TLE

AggiornatoSource: CelesTrak SupGP

Epoca: Sep 15, 2026, 03:21 UTC

1 65277C 25184E   26258.14006944  .00020300  00000+0  63017-3 0  2580
2 65277  97.2829 306.1193 0001055  85.9922  81.1627 15.33429414    17

Traccia STARLINK-34935 in tempo reale con AllMySat

Download on the App Store